Index of /20260427/WXO-DD/model_caps/3km/12/018
Name Last modified Size Description
Parent Directory -
20260427T12Z_MSC_CAPS_AbsoluteVorticity_IsbL-0250_RLatLon0.03_PT018H.grib2 2026-04-27 18:13 1.0M
20260427T12Z_MSC_CAPS_AbsoluteVorticity_IsbL-0500_RLatLon0.03_PT018H.grib2 2026-04-27 18:13 1.1M
20260427T12Z_MSC_CAPS_AbsoluteVorticity_IsbL-0700_RLatLon0.03_PT018H.grib2 2026-04-27 18:13 1.0M
20260427T12Z_MSC_CAPS_AbsoluteVorticity_IsbL-0850_RLatLon0.03_PT018H.grib2 2026-04-27 18:13 1.2M
20260427T12Z_MSC_CAPS_AbsoluteVorticity_IsbL-1000_RLatLon0.03_PT018H.grib2 2026-04-27 18:13 1.4M
20260427T12Z_MSC_CAPS_AirDensity_AGL-120m_RLatLon0.03_PT018H.grib2 2026-04-27 18:13 1.4M
20260427T12Z_MSC_CAPS_AirDensity_AGL-40m_RLatLon0.03_PT018H.grib2 2026-04-27 18:13 1.4M
20260427T12Z_MSC_CAPS_AirDensity_AGL-80m_RLatLon0.03_PT018H.grib2 2026-04-27 18:13 1.4M
20260427T12Z_MSC_CAPS_AirTemp_AGL-120m_RLatLon0.03_PT018H.grib2 2026-04-27 18:13 1.8M
20260427T12Z_MSC_CAPS_AirTemp_AGL-2m_RLatLon0.03_PT018H.grib2 2026-04-27 18:13 2.1M
20260427T12Z_MSC_CAPS_AirTemp_AGL-40m_RLatLon0.03_PT018H.grib2 2026-04-27 18:13 1.9M
20260427T12Z_MSC_CAPS_AirTemp_AGL-80m_RLatLon0.03_PT018H.grib2 2026-04-27 18:13 1.8M
20260427T12Z_MSC_CAPS_AirTemp_IsbL-0050_RLatLon0.03_PT018H.grib2 2026-04-27 18:13 697K
20260427T12Z_MSC_CAPS_AirTemp_IsbL-0100_RLatLon0.03_PT018H.grib2 2026-04-27 18:13 961K
20260427T12Z_MSC_CAPS_AirTemp_IsbL-0150_RLatLon0.03_PT018H.grib2 2026-04-27 18:13 747K
20260427T12Z_MSC_CAPS_AirTemp_IsbL-0175_RLatLon0.03_PT018H.grib2 2026-04-27 18:13 768K
20260427T12Z_MSC_CAPS_AirTemp_IsbL-0200_RLatLon0.03_PT018H.grib2 2026-04-27 18:13 786K
20260427T12Z_MSC_CAPS_AirTemp_IsbL-0225_RLatLon0.03_PT018H.grib2 2026-04-27 18:13 791K
20260427T12Z_MSC_CAPS_AirTemp_IsbL-0250_RLatLon0.03_PT018H.grib2 2026-04-27 18:13 786K
20260427T12Z_MSC_CAPS_AirTemp_IsbL-0275_RLatLon0.03_PT018H.grib2 2026-04-27 18:13 1.0M
20260427T12Z_MSC_CAPS_AirTemp_IsbL-0300_RLatLon0.03_PT018H.grib2 2026-04-27 18:13 1.0M
20260427T12Z_MSC_CAPS_AirTemp_IsbL-0350_RLatLon0.03_PT018H.grib2 2026-04-27 18:13 747K
20260427T12Z_MSC_CAPS_AirTemp_IsbL-0400_RLatLon0.03_PT018H.grib2 2026-04-27 18:13 753K
20260427T12Z_MSC_CAPS_AirTemp_IsbL-0450_RLatLon0.03_PT018H.grib2 2026-04-27 18:13 765K
20260427T12Z_MSC_CAPS_AirTemp_IsbL-0500_RLatLon0.03_PT018H.grib2 2026-04-27 18:13 780K
20260427T12Z_MSC_CAPS_AirTemp_IsbL-0550_RLatLon0.03_PT018H.grib2 2026-04-27 18:13 797K
20260427T12Z_MSC_CAPS_AirTemp_IsbL-0600_RLatLon0.03_PT018H.grib2 2026-04-27 18:13 814K
20260427T12Z_MSC_CAPS_AirTemp_IsbL-0650_RLatLon0.03_PT018H.grib2 2026-04-27 18:13 836K
20260427T12Z_MSC_CAPS_AirTemp_IsbL-0700_RLatLon0.03_PT018H.grib2 2026-04-27 18:13 1.0M
20260427T12Z_MSC_CAPS_AirTemp_IsbL-0750_RLatLon0.03_PT018H.grib2 2026-04-27 18:13 1.0M
20260427T12Z_MSC_CAPS_AirTemp_IsbL-0800_RLatLon0.03_PT018H.grib2 2026-04-27 18:13 1.0M
20260427T12Z_MSC_CAPS_AirTemp_IsbL-0850_RLatLon0.03_PT018H.grib2 2026-04-27 18:13 1.1M
20260427T12Z_MSC_CAPS_AirTemp_IsbL-0875_RLatLon0.03_PT018H.grib2 2026-04-27 18:13 1.1M
20260427T12Z_MSC_CAPS_AirTemp_IsbL-0900_RLatLon0.03_PT018H.grib2 2026-04-27 18:13 1.0M
20260427T12Z_MSC_CAPS_AirTemp_IsbL-0925_RLatLon0.03_PT018H.grib2 2026-04-27 18:13 1.1M
20260427T12Z_MSC_CAPS_AirTemp_IsbL-0950_RLatLon0.03_PT018H.grib2 2026-04-27 18:13 1.2M
20260427T12Z_MSC_CAPS_AirTemp_IsbL-0970_RLatLon0.03_PT018H.grib2 2026-04-27 18:13 1.2M
20260427T12Z_MSC_CAPS_AirTemp_IsbL-0985_RLatLon0.03_PT018H.grib2 2026-04-27 18:13 1.1M
20260427T12Z_MSC_CAPS_AirTemp_IsbL-1000_RLatLon0.03_PT018H.grib2 2026-04-27 18:13 1.1M
20260427T12Z_MSC_CAPS_AirTemp_IsbL-1015_RLatLon0.03_PT018H.grib2 2026-04-27 18:13 1.2M
20260427T12Z_MSC_CAPS_Albedo_Sfc_RLatLon0.03_PT018H.grib2 2026-04-27 18:13 2.7M
20260427T12Z_MSC_CAPS_CAPE_Sfc_RLatLon0.03_PT018H.grib2 2026-04-27 18:13 36K
20260427T12Z_MSC_CAPS_CloudWater_EAtm_RLatLon0.03_PT018H.grib2 2026-04-27 18:13 1.4M
20260427T12Z_MSC_CAPS_ConvectivePrecip-Accum_Sfc_RLatLon0.03_PT018H.grib2 2026-04-27 18:13 3.7M
20260427T12Z_MSC_CAPS_DewPointDepression_AGL-120m_RLatLon0.03_PT018H.grib2 2026-04-27 18:13 2.1M
20260427T12Z_MSC_CAPS_DewPointDepression_AGL-2m_RLatLon0.03_PT018H.grib2 2026-04-27 18:13 2.6M
20260427T12Z_MSC_CAPS_DewPointDepression_AGL-40m_RLatLon0.03_PT018H.grib2 2026-04-27 18:13 2.1M
20260427T12Z_MSC_CAPS_DewPointDepression_AGL-80m_RLatLon0.03_PT018H.grib2 2026-04-27 18:13 2.1M
20260427T12Z_MSC_CAPS_DewPointDepression_IsbL-0050_RLatLon0.03_PT018H.grib2 2026-04-27 18:13 6.4K
20260427T12Z_MSC_CAPS_DewPointDepression_IsbL-0100_RLatLon0.03_PT018H.grib2 2026-04-27 18:13 121K
20260427T12Z_MSC_CAPS_DewPointDepression_IsbL-0150_RLatLon0.03_PT018H.grib2 2026-04-27 18:13 82K
20260427T12Z_MSC_CAPS_DewPointDepression_IsbL-0175_RLatLon0.03_PT018H.grib2 2026-04-27 18:13 192K
20260427T12Z_MSC_CAPS_DewPointDepression_IsbL-0200_RLatLon0.03_PT018H.grib2 2026-04-27 18:13 379K
20260427T12Z_MSC_CAPS_DewPointDepression_IsbL-0225_RLatLon0.03_PT018H.grib2 2026-04-27 18:13 643K
20260427T12Z_MSC_CAPS_DewPointDepression_IsbL-0250_RLatLon0.03_PT018H.grib2 2026-04-27 18:13 872K
20260427T12Z_MSC_CAPS_DewPointDepression_IsbL-0275_RLatLon0.03_PT018H.grib2 2026-04-27 18:13 1.0M
20260427T12Z_MSC_CAPS_DewPointDepression_IsbL-0300_RLatLon0.03_PT018H.grib2 2026-04-27 18:13 1.0M
20260427T12Z_MSC_CAPS_DewPointDepression_IsbL-0350_RLatLon0.03_PT018H.grib2 2026-04-27 18:13 1.1M
20260427T12Z_MSC_CAPS_DewPointDepression_IsbL-0400_RLatLon0.03_PT018H.grib2 2026-04-27 18:13 1.1M
20260427T12Z_MSC_CAPS_DewPointDepression_IsbL-0450_RLatLon0.03_PT018H.grib2 2026-04-27 18:13 1.1M
20260427T12Z_MSC_CAPS_DewPointDepression_IsbL-0500_RLatLon0.03_PT018H.grib2 2026-04-27 18:13 1.2M
20260427T12Z_MSC_CAPS_DewPointDepression_IsbL-0550_RLatLon0.03_PT018H.grib2 2026-04-27 18:13 1.2M
20260427T12Z_MSC_CAPS_DewPointDepression_IsbL-0600_RLatLon0.03_PT018H.grib2 2026-04-27 18:13 1.2M
20260427T12Z_MSC_CAPS_DewPointDepression_IsbL-0650_RLatLon0.03_PT018H.grib2 2026-04-27 18:13 1.2M
20260427T12Z_MSC_CAPS_DewPointDepression_IsbL-0700_RLatLon0.03_PT018H.grib2 2026-04-27 18:13 1.3M
20260427T12Z_MSC_CAPS_DewPointDepression_IsbL-0750_RLatLon0.03_PT018H.grib2 2026-04-27 18:13 1.3M
20260427T12Z_MSC_CAPS_DewPointDepression_IsbL-0800_RLatLon0.03_PT018H.grib2 2026-04-27 18:13 1.3M
20260427T12Z_MSC_CAPS_DewPointDepression_IsbL-0850_RLatLon0.03_PT018H.grib2 2026-04-27 18:13 1.4M
20260427T12Z_MSC_CAPS_DewPointDepression_IsbL-0875_RLatLon0.03_PT018H.grib2 2026-04-27 18:13 1.4M
20260427T12Z_MSC_CAPS_DewPointDepression_IsbL-0900_RLatLon0.03_PT018H.grib2 2026-04-27 18:13 1.4M
20260427T12Z_MSC_CAPS_DewPointDepression_IsbL-0925_RLatLon0.03_PT018H.grib2 2026-04-27 18:13 1.4M
20260427T12Z_MSC_CAPS_DewPointDepression_IsbL-0950_RLatLon0.03_PT018H.grib2 2026-04-27 18:13 1.4M
20260427T12Z_MSC_CAPS_DewPointDepression_IsbL-0970_RLatLon0.03_PT018H.grib2 2026-04-27 18:13 1.4M
20260427T12Z_MSC_CAPS_DewPointDepression_IsbL-0985_RLatLon0.03_PT018H.grib2 2026-04-27 18:13 1.4M
20260427T12Z_MSC_CAPS_DewPointDepression_IsbL-1000_RLatLon0.03_PT018H.grib2 2026-04-27 18:13 1.7M
20260427T12Z_MSC_CAPS_DewPointDepression_IsbL-1015_RLatLon0.03_PT018H.grib2 2026-04-27 18:13 1.7M
20260427T12Z_MSC_CAPS_DewPoint_AGL-120m_RLatLon0.03_PT018H.grib2 2026-04-27 18:13 3.6M
20260427T12Z_MSC_CAPS_DewPoint_AGL-2m_RLatLon0.03_PT018H.grib2 2026-04-27 18:13 2.2M
20260427T12Z_MSC_CAPS_DewPoint_AGL-40m_RLatLon0.03_PT018H.grib2 2026-04-27 18:13 3.7M
20260427T12Z_MSC_CAPS_DewPoint_AGL-80m_RLatLon0.03_PT018H.grib2 2026-04-27 18:13 3.7M
20260427T12Z_MSC_CAPS_DownwardLongwaveRadiationFlux-Accum_Sfc_RLatLon0.03_PT018H.grib2 2026-04-27 18:13 2.7M
20260427T12Z_MSC_CAPS_DownwardShortwaveRadiationFlux-Accum_NTAtm_RLatLon0.03_PT018H.grib2 2026-04-27 18:13 459K
20260427T12Z_MSC_CAPS_DownwardShortwaveRadiationFlux-Accum_Sfc_RLatLon0.03_PT018H.grib2 2026-04-27 18:13 3.0M
20260427T12Z_MSC_CAPS_FreezingRain-Accum_Sfc_RLatLon0.03_PT018H.grib2 2026-04-27 18:13 424K
20260427T12Z_MSC_CAPS_GeopotentialHeight_IsbL-0050_RLatLon0.03_PT018H.grib2 2026-04-27 18:13 637K
20260427T12Z_MSC_CAPS_GeopotentialHeight_IsbL-0100_RLatLon0.03_PT018H.grib2 2026-04-27 18:13 761K
20260427T12Z_MSC_CAPS_GeopotentialHeight_IsbL-0150_RLatLon0.03_PT018H.grib2 2026-04-27 18:13 719K
20260427T12Z_MSC_CAPS_GeopotentialHeight_IsbL-0175_RLatLon0.03_PT018H.grib2 2026-04-27 18:13 735K
20260427T12Z_MSC_CAPS_GeopotentialHeight_IsbL-0200_RLatLon0.03_PT018H.grib2 2026-04-27 18:13 745K
20260427T12Z_MSC_CAPS_GeopotentialHeight_IsbL-0225_RLatLon0.03_PT018H.grib2 2026-04-27 18:13 751K
20260427T12Z_MSC_CAPS_GeopotentialHeight_IsbL-0250_RLatLon0.03_PT018H.grib2 2026-04-27 18:13 761K
20260427T12Z_MSC_CAPS_GeopotentialHeight_IsbL-0275_RLatLon0.03_PT018H.grib2 2026-04-27 18:13 774K
20260427T12Z_MSC_CAPS_GeopotentialHeight_IsbL-0300_RLatLon0.03_PT018H.grib2 2026-04-27 18:13 780K
20260427T12Z_MSC_CAPS_GeopotentialHeight_IsbL-0350_RLatLon0.03_PT018H.grib2 2026-04-27 18:13 780K
20260427T12Z_MSC_CAPS_GeopotentialHeight_IsbL-0400_RLatLon0.03_PT018H.grib2 2026-04-27 18:13 777K
20260427T12Z_MSC_CAPS_GeopotentialHeight_IsbL-0450_RLatLon0.03_PT018H.grib2 2026-04-27 18:13 770K
20260427T12Z_MSC_CAPS_GeopotentialHeight_IsbL-0500_RLatLon0.03_PT018H.grib2 2026-04-27 18:13 760K
20260427T12Z_MSC_CAPS_GeopotentialHeight_IsbL-0550_RLatLon0.03_PT018H.grib2 2026-04-27 18:13 752K
20260427T12Z_MSC_CAPS_GeopotentialHeight_IsbL-0600_RLatLon0.03_PT018H.grib2 2026-04-27 18:13 744K
20260427T12Z_MSC_CAPS_GeopotentialHeight_IsbL-0650_RLatLon0.03_PT018H.grib2 2026-04-27 18:13 634K
20260427T12Z_MSC_CAPS_GeopotentialHeight_IsbL-0700_RLatLon0.03_PT018H.grib2 2026-04-27 18:13 630K
20260427T12Z_MSC_CAPS_GeopotentialHeight_IsbL-0750_RLatLon0.03_PT018H.grib2 2026-04-27 18:13 632K
20260427T12Z_MSC_CAPS_GeopotentialHeight_IsbL-0800_RLatLon0.03_PT018H.grib2 2026-04-27 18:13 810K
20260427T12Z_MSC_CAPS_GeopotentialHeight_IsbL-0850_RLatLon0.03_PT018H.grib2 2026-04-27 18:13 819K
20260427T12Z_MSC_CAPS_GeopotentialHeight_IsbL-0875_RLatLon0.03_PT018H.grib2 2026-04-27 18:13 826K
20260427T12Z_MSC_CAPS_GeopotentialHeight_IsbL-0900_RLatLon0.03_PT018H.grib2 2026-04-27 18:13 831K
20260427T12Z_MSC_CAPS_GeopotentialHeight_IsbL-0925_RLatLon0.03_PT018H.grib2 2026-04-27 18:13 844K
20260427T12Z_MSC_CAPS_GeopotentialHeight_IsbL-0950_RLatLon0.03_PT018H.grib2 2026-04-27 18:13 850K
20260427T12Z_MSC_CAPS_GeopotentialHeight_IsbL-0970_RLatLon0.03_PT018H.grib2 2026-04-27 18:13 862K
20260427T12Z_MSC_CAPS_GeopotentialHeight_IsbL-0985_RLatLon0.03_PT018H.grib2 2026-04-27 18:13 871K
20260427T12Z_MSC_CAPS_GeopotentialHeight_IsbL-1000_RLatLon0.03_PT018H.grib2 2026-04-27 18:13 879K
20260427T12Z_MSC_CAPS_GeopotentialHeight_IsbL-1015_RLatLon0.03_PT018H.grib2 2026-04-27 18:13 886K
20260427T12Z_MSC_CAPS_GeopotentialHeight_Sfc_RLatLon0.03_PT018H.grib2 2026-04-27 18:13 1.0M
20260427T12Z_MSC_CAPS_IcePellets-Accum_Sfc_RLatLon0.03_PT018H.grib2 2026-04-27 18:13 27K
20260427T12Z_MSC_CAPS_LatentHeatNetFlux_Sfc_RLatLon0.03_PT018H.grib2 2026-04-27 18:13 1.7M
20260427T12Z_MSC_CAPS_LiftedIndex-MU-VT_IsbL-0500_RLatLon0.03_PT018H.grib2 2026-04-27 18:13 3.3M
20260427T12Z_MSC_CAPS_MixedLayerThickness_Sfc_RLatLon0.03_PT018H.nc 2026-04-27 18:14 17M
20260427T12Z_MSC_CAPS_NetLongwaveRadiationFlux-Accum_Sfc_RLatLon0.03_PT018H.grib2 2026-04-27 18:13 2.9M
20260427T12Z_MSC_CAPS_NetShortwaveRadiationFlux-Accum_Sfc_RLatLon0.03_PT018H.grib2 2026-04-27 18:13 3.0M
20260427T12Z_MSC_CAPS_PlanetaryBoundaryLayerHeight_Sfc_RLatLon0.03_PT018H.grib2 2026-04-27 18:13 2.8M
20260427T12Z_MSC_CAPS_Precip-Accum_Sfc_RLatLon0.03_PT018H.grib2 2026-04-27 18:13 3.9M
20260427T12Z_MSC_CAPS_PrecipRate_Sfc_RLatLon0.03_PT018H.grib2 2026-04-27 18:13 487K
20260427T12Z_MSC_CAPS_PrecipType-Instant_Sfc_RLatLon0.03_PT018H.grib2 2026-04-27 18:13 1.7M
20260427T12Z_MSC_CAPS_Pressure_MSL_RLatLon0.03_PT018H.grib2 2026-04-27 18:13 766K
20260427T12Z_MSC_CAPS_Pressure_Sfc_RLatLon0.03_PT018H.grib2 2026-04-27 18:13 1.2M
20260427T12Z_MSC_CAPS_RadiativeTemp_Sfc_RLatLon0.03_PT018H.grib2 2026-04-27 18:13 2.1M
20260427T12Z_MSC_CAPS_Rain-Accum_Sfc_RLatLon0.03_PT018H.grib2 2026-04-27 18:13 1.5M
20260427T12Z_MSC_CAPS_RelativeHumidity_AGL-120m_RLatLon0.03_PT018H.grib2 2026-04-27 18:13 2.8M
20260427T12Z_MSC_CAPS_RelativeHumidity_AGL-2m_RLatLon0.03_PT018H.grib2 2026-04-27 18:13 2.9M
20260427T12Z_MSC_CAPS_RelativeHumidity_AGL-40m_RLatLon0.03_PT018H.grib2 2026-04-27 18:13 2.8M
20260427T12Z_MSC_CAPS_RelativeHumidity_AGL-80m_RLatLon0.03_PT018H.grib2 2026-04-27 18:13 2.8M
20260427T12Z_MSC_CAPS_RelativeHumidity_IsbL-0050_RLatLon0.03_PT018H.grib2 2026-04-27 18:13 1.0M
20260427T12Z_MSC_CAPS_RelativeHumidity_IsbL-0100_RLatLon0.03_PT018H.grib2 2026-04-27 18:13 1.0M
20260427T12Z_MSC_CAPS_RelativeHumidity_IsbL-0150_RLatLon0.03_PT018H.grib2 2026-04-27 18:13 498K
20260427T12Z_MSC_CAPS_RelativeHumidity_IsbL-0175_RLatLon0.03_PT018H.grib2 2026-04-27 18:13 488K
20260427T12Z_MSC_CAPS_RelativeHumidity_IsbL-0200_RLatLon0.03_PT018H.grib2 2026-04-27 18:13 643K
20260427T12Z_MSC_CAPS_RelativeHumidity_IsbL-0225_RLatLon0.03_PT018H.grib2 2026-04-27 18:13 864K
20260427T12Z_MSC_CAPS_RelativeHumidity_IsbL-0250_RLatLon0.03_PT018H.grib2 2026-04-27 18:13 1.1M
20260427T12Z_MSC_CAPS_RelativeHumidity_IsbL-0275_RLatLon0.03_PT018H.grib2 2026-04-27 18:13 1.4M
20260427T12Z_MSC_CAPS_RelativeHumidity_IsbL-0300_RLatLon0.03_PT018H.grib2 2026-04-27 18:13 1.5M
20260427T12Z_MSC_CAPS_RelativeHumidity_IsbL-0350_RLatLon0.03_PT018H.grib2 2026-04-27 18:13 2.0M
20260427T12Z_MSC_CAPS_RelativeHumidity_IsbL-0400_RLatLon0.03_PT018H.grib2 2026-04-27 18:13 1.9M
20260427T12Z_MSC_CAPS_RelativeHumidity_IsbL-0450_RLatLon0.03_PT018H.grib2 2026-04-27 18:13 2.0M
20260427T12Z_MSC_CAPS_RelativeHumidity_IsbL-0500_RLatLon0.03_PT018H.grib2 2026-04-27 18:13 1.9M
20260427T12Z_MSC_CAPS_RelativeHumidity_IsbL-0550_RLatLon0.03_PT018H.grib2 2026-04-27 18:13 2.1M
20260427T12Z_MSC_CAPS_RelativeHumidity_IsbL-0600_RLatLon0.03_PT018H.grib2 2026-04-27 18:13 2.1M
20260427T12Z_MSC_CAPS_RelativeHumidity_IsbL-0650_RLatLon0.03_PT018H.grib2 2026-04-27 18:13 2.1M
20260427T12Z_MSC_CAPS_RelativeHumidity_IsbL-0700_RLatLon0.03_PT018H.grib2 2026-04-27 18:13 2.3M
20260427T12Z_MSC_CAPS_RelativeHumidity_IsbL-0750_RLatLon0.03_PT018H.grib2 2026-04-27 18:13 2.3M
20260427T12Z_MSC_CAPS_RelativeHumidity_IsbL-0800_RLatLon0.03_PT018H.grib2 2026-04-27 18:13 2.4M
20260427T12Z_MSC_CAPS_RelativeHumidity_IsbL-0850_RLatLon0.03_PT018H.grib2 2026-04-27 18:13 2.5M
20260427T12Z_MSC_CAPS_RelativeHumidity_IsbL-0875_RLatLon0.03_PT018H.grib2 2026-04-27 18:13 2.5M
20260427T12Z_MSC_CAPS_RelativeHumidity_IsbL-0900_RLatLon0.03_PT018H.grib2 2026-04-27 18:13 2.6M
20260427T12Z_MSC_CAPS_RelativeHumidity_IsbL-0925_RLatLon0.03_PT018H.grib2 2026-04-27 18:13 2.6M
20260427T12Z_MSC_CAPS_RelativeHumidity_IsbL-0950_RLatLon0.03_PT018H.grib2 2026-04-27 18:13 2.6M
20260427T12Z_MSC_CAPS_RelativeHumidity_IsbL-0970_RLatLon0.03_PT018H.grib2 2026-04-27 18:13 2.7M
20260427T12Z_MSC_CAPS_RelativeHumidity_IsbL-0985_RLatLon0.03_PT018H.grib2 2026-04-27 18:13 2.8M
20260427T12Z_MSC_CAPS_RelativeHumidity_IsbL-1000_RLatLon0.03_PT018H.grib2 2026-04-27 18:13 2.9M
20260427T12Z_MSC_CAPS_RelativeHumidity_IsbL-1015_RLatLon0.03_PT018H.grib2 2026-04-27 18:13 2.9M
20260427T12Z_MSC_CAPS_Runoff-Accum_Sfc_RLatLon0.03_PT018H.grib2 2026-04-27 18:13 278K
20260427T12Z_MSC_CAPS_SeaIceAreaFraction_Sfc_RLatLon0.03_PT018H.nc 2026-04-27 18:14 15M
20260427T12Z_MSC_CAPS_SeaIceCompressiveStrength_Sfc_RLatLon0.03_PT018H.nc 2026-04-27 18:14 15M
20260427T12Z_MSC_CAPS_SeaIceDivergence_Sfc_RLatLon0.03_PT018H.nc 2026-04-27 18:14 15M
20260427T12Z_MSC_CAPS_SeaIceInternalPressure_Sfc_RLatLon0.03_PT018H.nc 2026-04-27 18:14 15M
20260427T12Z_MSC_CAPS_SeaIceShear_Sfc_RLatLon0.03_PT018H.nc 2026-04-27 18:14 14M
20260427T12Z_MSC_CAPS_SeaIceSnowTemp_Sfc_RLatLon0.03_PT018H.nc 2026-04-27 18:14 15M
20260427T12Z_MSC_CAPS_SeaIceSnowVolume_Sfc_RLatLon0.03_PT018H.nc 2026-04-27 18:14 15M
20260427T12Z_MSC_CAPS_SeaIceVelocityX_Sfc_RLatLon0.03_PT018H.nc 2026-04-27 18:14 15M
20260427T12Z_MSC_CAPS_SeaIceVelocityY_Sfc_RLatLon0.03_PT018H.nc 2026-04-27 18:14 15M
20260427T12Z_MSC_CAPS_SeaIceVolume_Sfc_RLatLon0.03_PT018H.nc 2026-04-27 18:14 15M
20260427T12Z_MSC_CAPS_SeaSurfaceHeight_Sfc_RLatLon0.03_PT018H.nc 2026-04-27 18:14 16M
20260427T12Z_MSC_CAPS_SeaWaterSalinity_DBS-0.5m_RLatLon0.03_PT018H.nc 2026-04-27 18:14 16M
20260427T12Z_MSC_CAPS_SeaWaterSalinity_DBS-all_RLatLon0.03_PT018H.nc 2026-04-27 18:14 107M
20260427T12Z_MSC_CAPS_SeaWaterTemp_DBS-0.5m_RLatLon0.03_PT018H.nc 2026-04-27 18:14 14M
20260427T12Z_MSC_CAPS_SeaWaterTemp_DBS-all_RLatLon0.03_PT018H.nc 2026-04-27 18:14 87M
20260427T12Z_MSC_CAPS_SeaWaterVelocityX_DBS-0.5m_RLatLon0.03_PT018H.nc 2026-04-27 18:14 17M
20260427T12Z_MSC_CAPS_SeaWaterVelocityX_DBS-all_RLatLon0.03_PT018H.nc 2026-04-27 18:14 210M
20260427T12Z_MSC_CAPS_SeaWaterVelocityY_DBS-0.5m_RLatLon0.03_PT018H.nc 2026-04-27 18:14 17M
20260427T12Z_MSC_CAPS_SeaWaterVelocityY_DBS-all_RLatLon0.03_PT018H.nc 2026-04-27 18:14 214M
20260427T12Z_MSC_CAPS_SensibleHeatNetFlux_Sfc_RLatLon0.03_PT018H.grib2 2026-04-27 18:13 2.1M
20260427T12Z_MSC_CAPS_ShowalterIndex_IsbL-0500_RLatLon0.03_PT018H.grib2 2026-04-27 18:13 4.3M
20260427T12Z_MSC_CAPS_Snow-Accum_Sfc_RLatLon0.03_PT018H.grib2 2026-04-27 18:13 3.2M
20260427T12Z_MSC_CAPS_SnowDensity_Sfc_RLatLon0.03_PT018H.grib2 2026-04-27 18:13 1.3M
20260427T12Z_MSC_CAPS_SnowDepthWaterEquivalent_Sfc_RLatLon0.03_PT018H.grib2 2026-04-27 18:13 719K
20260427T12Z_MSC_CAPS_SnowDepth_Sfc_RLatLon0.03_PT018H.grib2 2026-04-27 18:13 1.2M
20260427T12Z_MSC_CAPS_SoilTemp_DBS-0to10cm_RLatLon0.03_PT018H.grib2 2026-04-27 18:13 1.5M
20260427T12Z_MSC_CAPS_SoilTemp_Sfc_RLatLon0.03_PT018H.grib2 2026-04-27 18:13 1.8M
20260427T12Z_MSC_CAPS_SoilVolumetricIceContent_Sfc_RLatLon0.03_PT018H.grib2 2026-04-27 18:13 1.4M
20260427T12Z_MSC_CAPS_SoilVolumetricWaterContent_DBS-0to10cm_RLatLon0.03_PT018H.grib2 2026-04-27 18:13 1.1M
20260427T12Z_MSC_CAPS_SoilVolumetricWaterContent_DBS-0to1cm_RLatLon0.03_PT018H.grib2 2026-04-27 18:13 1.7M
20260427T12Z_MSC_CAPS_SpecificHumidity_AGL-120m_RLatLon0.03_PT018H.grib2 2026-04-27 18:13 1.7M
20260427T12Z_MSC_CAPS_SpecificHumidity_AGL-2m_RLatLon0.03_PT018H.grib2 2026-04-27 18:13 2.1M
20260427T12Z_MSC_CAPS_SpecificHumidity_AGL-40m_RLatLon0.03_PT018H.grib2 2026-04-27 18:13 1.8M
20260427T12Z_MSC_CAPS_SpecificHumidity_AGL-80m_RLatLon0.03_PT018H.grib2 2026-04-27 18:13 1.7M
20260427T12Z_MSC_CAPS_SpecificHumidity_IsbL-0050_RLatLon0.03_PT018H.grib2 2026-04-27 18:13 900K
20260427T12Z_MSC_CAPS_SpecificHumidity_IsbL-0100_RLatLon0.03_PT018H.grib2 2026-04-27 18:13 1.0M
20260427T12Z_MSC_CAPS_SpecificHumidity_IsbL-0150_RLatLon0.03_PT018H.grib2 2026-04-27 18:13 771K
20260427T12Z_MSC_CAPS_SpecificHumidity_IsbL-0175_RLatLon0.03_PT018H.grib2 2026-04-27 18:13 1.0M
20260427T12Z_MSC_CAPS_SpecificHumidity_IsbL-0200_RLatLon0.03_PT018H.grib2 2026-04-27 18:13 857K
20260427T12Z_MSC_CAPS_SpecificHumidity_IsbL-0225_RLatLon0.03_PT018H.grib2 2026-04-27 18:13 1.0M
20260427T12Z_MSC_CAPS_SpecificHumidity_IsbL-0250_RLatLon0.03_PT018H.grib2 2026-04-27 18:13 1.0M
20260427T12Z_MSC_CAPS_SpecificHumidity_IsbL-0275_RLatLon0.03_PT018H.grib2 2026-04-27 18:13 1.1M
20260427T12Z_MSC_CAPS_SpecificHumidity_IsbL-0300_RLatLon0.03_PT018H.grib2 2026-04-27 18:13 972K
20260427T12Z_MSC_CAPS_SpecificHumidity_IsbL-0350_RLatLon0.03_PT018H.grib2 2026-04-27 18:13 1.3M
20260427T12Z_MSC_CAPS_SpecificHumidity_IsbL-0400_RLatLon0.03_PT018H.grib2 2026-04-27 18:13 1.1M
20260427T12Z_MSC_CAPS_SpecificHumidity_IsbL-0450_RLatLon0.03_PT018H.grib2 2026-04-27 18:13 1.1M
20260427T12Z_MSC_CAPS_SpecificHumidity_IsbL-0500_RLatLon0.03_PT018H.grib2 2026-04-27 18:13 1.3M
20260427T12Z_MSC_CAPS_SpecificHumidity_IsbL-0550_RLatLon0.03_PT018H.grib2 2026-04-27 18:13 1.2M
20260427T12Z_MSC_CAPS_SpecificHumidity_IsbL-0600_RLatLon0.03_PT018H.grib2 2026-04-27 18:13 1.3M
20260427T12Z_MSC_CAPS_SpecificHumidity_IsbL-0650_RLatLon0.03_PT018H.grib2 2026-04-27 18:13 1.5M
20260427T12Z_MSC_CAPS_SpecificHumidity_IsbL-0700_RLatLon0.03_PT018H.grib2 2026-04-27 18:13 1.6M
20260427T12Z_MSC_CAPS_SpecificHumidity_IsbL-0750_RLatLon0.03_PT018H.grib2 2026-04-27 18:13 1.7M
20260427T12Z_MSC_CAPS_SpecificHumidity_IsbL-0800_RLatLon0.03_PT018H.grib2 2026-04-27 18:13 1.5M
20260427T12Z_MSC_CAPS_SpecificHumidity_IsbL-0850_RLatLon0.03_PT018H.grib2 2026-04-27 18:13 1.6M
20260427T12Z_MSC_CAPS_SpecificHumidity_IsbL-0875_RLatLon0.03_PT018H.grib2 2026-04-27 18:13 1.7M
20260427T12Z_MSC_CAPS_SpecificHumidity_IsbL-0900_RLatLon0.03_PT018H.grib2 2026-04-27 18:13 1.7M
20260427T12Z_MSC_CAPS_SpecificHumidity_IsbL-0925_RLatLon0.03_PT018H.grib2 2026-04-27 18:13 1.8M
20260427T12Z_MSC_CAPS_SpecificHumidity_IsbL-0950_RLatLon0.03_PT018H.grib2 2026-04-27 18:13 1.8M
20260427T12Z_MSC_CAPS_SpecificHumidity_IsbL-0970_RLatLon0.03_PT018H.grib2 2026-04-27 18:13 1.9M
20260427T12Z_MSC_CAPS_SpecificHumidity_IsbL-0985_RLatLon0.03_PT018H.grib2 2026-04-27 18:13 2.0M
20260427T12Z_MSC_CAPS_SpecificHumidity_IsbL-1000_RLatLon0.03_PT018H.grib2 2026-04-27 18:13 2.0M
20260427T12Z_MSC_CAPS_SpecificHumidity_IsbL-1015_RLatLon0.03_PT018H.grib2 2026-04-27 18:13 2.1M
20260427T12Z_MSC_CAPS_SpecificHumidity_Sfc_RLatLon0.03_PT018H.grib2 2026-04-27 18:13 2.5M
20260427T12Z_MSC_CAPS_StormRelativeHelicity_Sfc_RLatLon0.03_PT018H.grib2 2026-04-27 18:13 3.2M
20260427T12Z_MSC_CAPS_Thickness_IsbL-1000to0500_RLatLon0.03_PT018H.grib2 2026-04-27 18:13 433K
20260427T12Z_MSC_CAPS_TotalCloudCover_Sfc_RLatLon0.03_PT018H.grib2 2026-04-27 18:13 3.7M
20260427T12Z_MSC_CAPS_TurboclineDepth_Sfc_RLatLon0.03_PT018H.nc 2026-04-27 18:14 16M
20260427T12Z_MSC_CAPS_UpwardLongwaveRadiationFlux_NTAtm_RLatLon0.03_PT018H.grib2 2026-04-27 18:13 2.9M
20260427T12Z_MSC_CAPS_UpwardShortwaveRadiationFlux_NTAtm_RLatLon0.03_PT018H.grib2 2026-04-27 18:13 1.6M
20260427T12Z_MSC_CAPS_VerticalVelocity_IsbL-0250_RLatLon0.03_PT018H.grib2 2026-04-27 18:13 1.0M
20260427T12Z_MSC_CAPS_VerticalVelocity_IsbL-0500_RLatLon0.03_PT018H.grib2 2026-04-27 18:13 859K
20260427T12Z_MSC_CAPS_VerticalVelocity_IsbL-0700_RLatLon0.03_PT018H.grib2 2026-04-27 18:13 918K
20260427T12Z_MSC_CAPS_VerticalVelocity_IsbL-0850_RLatLon0.03_PT018H.grib2 2026-04-27 18:13 1.1M
20260427T12Z_MSC_CAPS_VerticalVelocity_IsbL-1000_RLatLon0.03_PT018H.grib2 2026-04-27 18:13 1.1M
20260427T12Z_MSC_CAPS_WindDir_AGL-10m_RLatLon0.03_PT018H.grib2 2026-04-27 18:13 2.4M
20260427T12Z_MSC_CAPS_WindDir_AGL-120m_RLatLon0.03_PT018H.grib2 2026-04-27 18:13 1.2M
20260427T12Z_MSC_CAPS_WindDir_AGL-40m_RLatLon0.03_PT018H.grib2 2026-04-27 18:13 1.4M
20260427T12Z_MSC_CAPS_WindDir_AGL-80m_RLatLon0.03_PT018H.grib2 2026-04-27 18:13 1.3M
20260427T12Z_MSC_CAPS_WindDir_IsbL-0050_RLatLon0.03_PT018H.grib2 2026-04-27 18:13 1.0M
20260427T12Z_MSC_CAPS_WindDir_IsbL-0100_RLatLon0.03_PT018H.grib2 2026-04-27 18:13 1.0M
20260427T12Z_MSC_CAPS_WindDir_IsbL-0150_RLatLon0.03_PT018H.grib2 2026-04-27 18:13 1.0M
20260427T12Z_MSC_CAPS_WindDir_IsbL-0175_RLatLon0.03_PT018H.grib2 2026-04-27 18:13 1.1M
20260427T12Z_MSC_CAPS_WindDir_IsbL-0200_RLatLon0.03_PT018H.grib2 2026-04-27 18:13 1.1M
20260427T12Z_MSC_CAPS_WindDir_IsbL-0225_RLatLon0.03_PT018H.grib2 2026-04-27 18:13 1.1M
20260427T12Z_MSC_CAPS_WindDir_IsbL-0250_RLatLon0.03_PT018H.grib2 2026-04-27 18:13 1.1M
20260427T12Z_MSC_CAPS_WindDir_IsbL-0275_RLatLon0.03_PT018H.grib2 2026-04-27 18:13 1.1M
20260427T12Z_MSC_CAPS_WindDir_IsbL-0300_RLatLon0.03_PT018H.grib2 2026-04-27 18:13 1.1M
20260427T12Z_MSC_CAPS_WindDir_IsbL-0350_RLatLon0.03_PT018H.grib2 2026-04-27 18:13 1.1M
20260427T12Z_MSC_CAPS_WindDir_IsbL-0400_RLatLon0.03_PT018H.grib2 2026-04-27 18:13 1.1M
20260427T12Z_MSC_CAPS_WindDir_IsbL-0450_RLatLon0.03_PT018H.grib2 2026-04-27 18:13 1.2M
20260427T12Z_MSC_CAPS_WindDir_IsbL-0500_RLatLon0.03_PT018H.grib2 2026-04-27 18:13 1.2M
20260427T12Z_MSC_CAPS_WindDir_IsbL-0550_RLatLon0.03_PT018H.grib2 2026-04-27 18:13 1.3M
20260427T12Z_MSC_CAPS_WindDir_IsbL-0600_RLatLon0.03_PT018H.grib2 2026-04-27 18:13 1.3M
20260427T12Z_MSC_CAPS_WindDir_IsbL-0650_RLatLon0.03_PT018H.grib2 2026-04-27 18:13 1.3M
20260427T12Z_MSC_CAPS_WindDir_IsbL-0700_RLatLon0.03_PT018H.grib2 2026-04-27 18:13 1.4M
20260427T12Z_MSC_CAPS_WindDir_IsbL-0750_RLatLon0.03_PT018H.grib2 2026-04-27 18:13 1.5M
20260427T12Z_MSC_CAPS_WindDir_IsbL-0800_RLatLon0.03_PT018H.grib2 2026-04-27 18:13 1.6M
20260427T12Z_MSC_CAPS_WindDir_IsbL-0850_RLatLon0.03_PT018H.grib2 2026-04-27 18:13 1.7M
20260427T12Z_MSC_CAPS_WindDir_IsbL-0875_RLatLon0.03_PT018H.grib2 2026-04-27 18:13 1.8M
20260427T12Z_MSC_CAPS_WindDir_IsbL-0900_RLatLon0.03_PT018H.grib2 2026-04-27 18:13 1.9M
20260427T12Z_MSC_CAPS_WindDir_IsbL-0925_RLatLon0.03_PT018H.grib2 2026-04-27 18:13 1.9M
20260427T12Z_MSC_CAPS_WindDir_IsbL-0950_RLatLon0.03_PT018H.grib2 2026-04-27 18:13 2.0M
20260427T12Z_MSC_CAPS_WindDir_IsbL-0970_RLatLon0.03_PT018H.grib2 2026-04-27 18:13 2.1M
20260427T12Z_MSC_CAPS_WindDir_IsbL-0985_RLatLon0.03_PT018H.grib2 2026-04-27 18:13 2.2M
20260427T12Z_MSC_CAPS_WindDir_IsbL-1000_RLatLon0.03_PT018H.grib2 2026-04-27 18:13 2.3M
20260427T12Z_MSC_CAPS_WindDir_IsbL-1015_RLatLon0.03_PT018H.grib2 2026-04-27 18:13 2.4M
20260427T12Z_MSC_CAPS_WindGust-Max_AGL-10m_RLatLon0.03_PT018H.grib2 2026-04-27 18:13 2.3M
20260427T12Z_MSC_CAPS_WindGust-Min_AGL-10m_RLatLon0.03_PT018H.grib2 2026-04-27 18:13 2.2M
20260427T12Z_MSC_CAPS_WindGust_AGL-10m_RLatLon0.03_PT018H.grib2 2026-04-27 18:13 2.3M
20260427T12Z_MSC_CAPS_WindSpeed_AGL-10m_RLatLon0.03_PT018H.grib2 2026-04-27 18:13 2.1M
20260427T12Z_MSC_CAPS_WindSpeed_AGL-120m_RLatLon0.03_PT018H.grib2 2026-04-27 18:13 1.2M
20260427T12Z_MSC_CAPS_WindSpeed_AGL-40m_RLatLon0.03_PT018H.grib2 2026-04-27 18:13 1.3M
20260427T12Z_MSC_CAPS_WindSpeed_AGL-80m_RLatLon0.03_PT018H.grib2 2026-04-27 18:13 1.2M
20260427T12Z_MSC_CAPS_WindSpeed_IsbL-0050_RLatLon0.03_PT018H.grib2 2026-04-27 18:13 1.0M
20260427T12Z_MSC_CAPS_WindSpeed_IsbL-0100_RLatLon0.03_PT018H.grib2 2026-04-27 18:13 1.0M
20260427T12Z_MSC_CAPS_WindSpeed_IsbL-0150_RLatLon0.03_PT018H.grib2 2026-04-27 18:13 1.0M
20260427T12Z_MSC_CAPS_WindSpeed_IsbL-0175_RLatLon0.03_PT018H.grib2 2026-04-27 18:13 1.1M
20260427T12Z_MSC_CAPS_WindSpeed_IsbL-0200_RLatLon0.03_PT018H.grib2 2026-04-27 18:13 928K
20260427T12Z_MSC_CAPS_WindSpeed_IsbL-0225_RLatLon0.03_PT018H.grib2 2026-04-27 18:13 945K
20260427T12Z_MSC_CAPS_WindSpeed_IsbL-0250_RLatLon0.03_PT018H.grib2 2026-04-27 18:13 962K
20260427T12Z_MSC_CAPS_WindSpeed_IsbL-0275_RLatLon0.03_PT018H.grib2 2026-04-27 18:13 967K
20260427T12Z_MSC_CAPS_WindSpeed_IsbL-0300_RLatLon0.03_PT018H.grib2 2026-04-27 18:13 1.0M
20260427T12Z_MSC_CAPS_WindSpeed_IsbL-0350_RLatLon0.03_PT018H.grib2 2026-04-27 18:13 1.0M
20260427T12Z_MSC_CAPS_WindSpeed_IsbL-0400_RLatLon0.03_PT018H.grib2 2026-04-27 18:13 1.0M
20260427T12Z_MSC_CAPS_WindSpeed_IsbL-0450_RLatLon0.03_PT018H.grib2 2026-04-27 18:13 1.0M
20260427T12Z_MSC_CAPS_WindSpeed_IsbL-0500_RLatLon0.03_PT018H.grib2 2026-04-27 18:13 1.3M
20260427T12Z_MSC_CAPS_WindSpeed_IsbL-0550_RLatLon0.03_PT018H.grib2 2026-04-27 18:13 1.3M
20260427T12Z_MSC_CAPS_WindSpeed_IsbL-0600_RLatLon0.03_PT018H.grib2 2026-04-27 18:13 1.4M
20260427T12Z_MSC_CAPS_WindSpeed_IsbL-0650_RLatLon0.03_PT018H.grib2 2026-04-27 18:13 1.3M
20260427T12Z_MSC_CAPS_WindSpeed_IsbL-0700_RLatLon0.03_PT018H.grib2 2026-04-27 18:13 1.4M
20260427T12Z_MSC_CAPS_WindSpeed_IsbL-0750_RLatLon0.03_PT018H.grib2 2026-04-27 18:13 1.6M
20260427T12Z_MSC_CAPS_WindSpeed_IsbL-0800_RLatLon0.03_PT018H.grib2 2026-04-27 18:13 1.6M
20260427T12Z_MSC_CAPS_WindSpeed_IsbL-0850_RLatLon0.03_PT018H.grib2 2026-04-27 18:13 1.7M
20260427T12Z_MSC_CAPS_WindSpeed_IsbL-0875_RLatLon0.03_PT018H.grib2 2026-04-27 18:13 1.7M
20260427T12Z_MSC_CAPS_WindSpeed_IsbL-0900_RLatLon0.03_PT018H.grib2 2026-04-27 18:13 1.7M
20260427T12Z_MSC_CAPS_WindSpeed_IsbL-0925_RLatLon0.03_PT018H.grib2 2026-04-27 18:13 1.7M
20260427T12Z_MSC_CAPS_WindSpeed_IsbL-0950_RLatLon0.03_PT018H.grib2 2026-04-27 18:13 1.9M
20260427T12Z_MSC_CAPS_WindSpeed_IsbL-0970_RLatLon0.03_PT018H.grib2 2026-04-27 18:13 2.0M
20260427T12Z_MSC_CAPS_WindSpeed_IsbL-0985_RLatLon0.03_PT018H.grib2 2026-04-27 18:13 2.0M
20260427T12Z_MSC_CAPS_WindSpeed_IsbL-1000_RLatLon0.03_PT018H.grib2 2026-04-27 18:13 2.0M
20260427T12Z_MSC_CAPS_WindSpeed_IsbL-1015_RLatLon0.03_PT018H.grib2 2026-04-27 18:13 2.1M
20260427T12Z_MSC_CAPS_WindU_AGL-10m_RLatLon0.03_PT018H.grib2 2026-04-27 18:13 1.9M
20260427T12Z_MSC_CAPS_WindU_AGL-120m_RLatLon0.03_PT018H.grib2 2026-04-27 18:13 897K
20260427T12Z_MSC_CAPS_WindU_AGL-40m_RLatLon0.03_PT018H.grib2 2026-04-27 18:13 935K
20260427T12Z_MSC_CAPS_WindU_AGL-80m_RLatLon0.03_PT018H.grib2 2026-04-27 18:13 904K
20260427T12Z_MSC_CAPS_WindU_IsbL-0050_RLatLon0.03_PT018H.grib2 2026-04-27 18:13 939K
20260427T12Z_MSC_CAPS_WindU_IsbL-0100_RLatLon0.03_PT018H.grib2 2026-04-27 18:13 972K
20260427T12Z_MSC_CAPS_WindU_IsbL-0150_RLatLon0.03_PT018H.grib2 2026-04-27 18:13 712K
20260427T12Z_MSC_CAPS_WindU_IsbL-0175_RLatLon0.03_PT018H.grib2 2026-04-27 18:13 851K
20260427T12Z_MSC_CAPS_WindU_IsbL-0200_RLatLon0.03_PT018H.grib2 2026-04-27 18:13 867K
20260427T12Z_MSC_CAPS_WindU_IsbL-0225_RLatLon0.03_PT018H.grib2 2026-04-27 18:13 888K
20260427T12Z_MSC_CAPS_WindU_IsbL-0250_RLatLon0.03_PT018H.grib2 2026-04-27 18:13 908K
20260427T12Z_MSC_CAPS_WindU_IsbL-0275_RLatLon0.03_PT018H.grib2 2026-04-27 18:13 913K
20260427T12Z_MSC_CAPS_WindU_IsbL-0300_RLatLon0.03_PT018H.grib2 2026-04-27 18:13 716K
20260427T12Z_MSC_CAPS_WindU_IsbL-0350_RLatLon0.03_PT018H.grib2 2026-04-27 18:13 725K
20260427T12Z_MSC_CAPS_WindU_IsbL-0400_RLatLon0.03_PT018H.grib2 2026-04-27 18:13 941K
20260427T12Z_MSC_CAPS_WindU_IsbL-0450_RLatLon0.03_PT018H.grib2 2026-04-27 18:13 957K
20260427T12Z_MSC_CAPS_WindU_IsbL-0500_RLatLon0.03_PT018H.grib2 2026-04-27 18:13 1.0M
20260427T12Z_MSC_CAPS_WindU_IsbL-0550_RLatLon0.03_PT018H.grib2 2026-04-27 18:13 1.0M
20260427T12Z_MSC_CAPS_WindU_IsbL-0600_RLatLon0.03_PT018H.grib2 2026-04-27 18:13 1.0M
20260427T12Z_MSC_CAPS_WindU_IsbL-0650_RLatLon0.03_PT018H.grib2 2026-04-27 18:13 955K
20260427T12Z_MSC_CAPS_WindU_IsbL-0700_RLatLon0.03_PT018H.grib2 2026-04-27 18:13 1.0M
20260427T12Z_MSC_CAPS_WindU_IsbL-0750_RLatLon0.03_PT018H.grib2 2026-04-27 18:13 1.1M
20260427T12Z_MSC_CAPS_WindU_IsbL-0800_RLatLon0.03_PT018H.grib2 2026-04-27 18:13 1.1M
20260427T12Z_MSC_CAPS_WindU_IsbL-0850_RLatLon0.03_PT018H.grib2 2026-04-27 18:13 1.2M
20260427T12Z_MSC_CAPS_WindU_IsbL-0875_RLatLon0.03_PT018H.grib2 2026-04-27 18:13 1.2M
20260427T12Z_MSC_CAPS_WindU_IsbL-0900_RLatLon0.03_PT018H.grib2 2026-04-27 18:13 1.2M
20260427T12Z_MSC_CAPS_WindU_IsbL-0925_RLatLon0.03_PT018H.grib2 2026-04-27 18:13 1.3M
20260427T12Z_MSC_CAPS_WindU_IsbL-0950_RLatLon0.03_PT018H.grib2 2026-04-27 18:13 1.3M
20260427T12Z_MSC_CAPS_WindU_IsbL-0970_RLatLon0.03_PT018H.grib2 2026-04-27 18:13 1.7M
20260427T12Z_MSC_CAPS_WindU_IsbL-0985_RLatLon0.03_PT018H.grib2 2026-04-27 18:13 1.8M
20260427T12Z_MSC_CAPS_WindU_IsbL-1000_RLatLon0.03_PT018H.grib2 2026-04-27 18:13 1.8M
20260427T12Z_MSC_CAPS_WindU_IsbL-1015_RLatLon0.03_PT018H.grib2 2026-04-27 18:13 1.9M
20260427T12Z_MSC_CAPS_WindV_AGL-10m_RLatLon0.03_PT018H.grib2 2026-04-27 18:13 1.9M
20260427T12Z_MSC_CAPS_WindV_AGL-120m_RLatLon0.03_PT018H.grib2 2026-04-27 18:13 1.2M
20260427T12Z_MSC_CAPS_WindV_AGL-40m_RLatLon0.03_PT018H.grib2 2026-04-27 18:13 1.2M
20260427T12Z_MSC_CAPS_WindV_AGL-80m_RLatLon0.03_PT018H.grib2 2026-04-27 18:13 1.2M
20260427T12Z_MSC_CAPS_WindV_IsbL-0050_RLatLon0.03_PT018H.grib2 2026-04-27 18:13 944K
20260427T12Z_MSC_CAPS_WindV_IsbL-0100_RLatLon0.03_PT018H.grib2 2026-04-27 18:13 802K
20260427T12Z_MSC_CAPS_WindV_IsbL-0150_RLatLon0.03_PT018H.grib2 2026-04-27 18:13 919K
20260427T12Z_MSC_CAPS_WindV_IsbL-0175_RLatLon0.03_PT018H.grib2 2026-04-27 18:13 722K
20260427T12Z_MSC_CAPS_WindV_IsbL-0200_RLatLon0.03_PT018H.grib2 2026-04-27 18:13 859K
20260427T12Z_MSC_CAPS_WindV_IsbL-0225_RLatLon0.03_PT018H.grib2 2026-04-27 18:13 878K
20260427T12Z_MSC_CAPS_WindV_IsbL-0250_RLatLon0.03_PT018H.grib2 2026-04-27 18:13 903K
20260427T12Z_MSC_CAPS_WindV_IsbL-0275_RLatLon0.03_PT018H.grib2 2026-04-27 18:13 911K
20260427T12Z_MSC_CAPS_WindV_IsbL-0300_RLatLon0.03_PT018H.grib2 2026-04-27 18:13 922K
20260427T12Z_MSC_CAPS_WindV_IsbL-0350_RLatLon0.03_PT018H.grib2 2026-04-27 18:13 936K
20260427T12Z_MSC_CAPS_WindV_IsbL-0400_RLatLon0.03_PT018H.grib2 2026-04-27 18:13 941K
20260427T12Z_MSC_CAPS_WindV_IsbL-0450_RLatLon0.03_PT018H.grib2 2026-04-27 18:13 956K
20260427T12Z_MSC_CAPS_WindV_IsbL-0500_RLatLon0.03_PT018H.grib2 2026-04-27 18:13 867K
20260427T12Z_MSC_CAPS_WindV_IsbL-0550_RLatLon0.03_PT018H.grib2 2026-04-27 18:13 902K
20260427T12Z_MSC_CAPS_WindV_IsbL-0600_RLatLon0.03_PT018H.grib2 2026-04-27 18:13 929K
20260427T12Z_MSC_CAPS_WindV_IsbL-0650_RLatLon0.03_PT018H.grib2 2026-04-27 18:13 951K
20260427T12Z_MSC_CAPS_WindV_IsbL-0700_RLatLon0.03_PT018H.grib2 2026-04-27 18:13 1.0M
20260427T12Z_MSC_CAPS_WindV_IsbL-0750_RLatLon0.03_PT018H.grib2 2026-04-27 18:13 1.0M
20260427T12Z_MSC_CAPS_WindV_IsbL-0800_RLatLon0.03_PT018H.grib2 2026-04-27 18:13 1.1M
20260427T12Z_MSC_CAPS_WindV_IsbL-0850_RLatLon0.03_PT018H.grib2 2026-04-27 18:13 1.2M
20260427T12Z_MSC_CAPS_WindV_IsbL-0875_RLatLon0.03_PT018H.grib2 2026-04-27 18:13 1.2M
20260427T12Z_MSC_CAPS_WindV_IsbL-0900_RLatLon0.03_PT018H.grib2 2026-04-27 18:13 1.2M
20260427T12Z_MSC_CAPS_WindV_IsbL-0925_RLatLon0.03_PT018H.grib2 2026-04-27 18:13 1.3M
20260427T12Z_MSC_CAPS_WindV_IsbL-0950_RLatLon0.03_PT018H.grib2 2026-04-27 18:13 1.3M
20260427T12Z_MSC_CAPS_WindV_IsbL-0970_RLatLon0.03_PT018H.grib2 2026-04-27 18:13 1.4M
20260427T12Z_MSC_CAPS_WindV_IsbL-0985_RLatLon0.03_PT018H.grib2 2026-04-27 18:13 1.8M
20260427T12Z_MSC_CAPS_WindV_IsbL-1000_RLatLon0.03_PT018H.grib2 2026-04-27 18:13 1.8M
20260427T12Z_MSC_CAPS_WindV_IsbL-1015_RLatLon0.03_PT018H.grib2 2026-04-27 18:13 1.9M